User: anonymous   Login
Location: Erlenbrunn
(49.1717°N, 7.6142°E)
Time: 01:37:28
(UTC+00:00)
Language:

SKYMED 3 - Orbit

View from above orbital plane
View from above orbital plane
View from above satellite
View from above satellite

Ground track
Ground track

The orbit data is extracted from the following two-line orbital elements,

1 33412U 08054A   21060.70977746 -.00000146  00000-0 -11739-4 0  9994
2 33412  97.8851 246.1307 0001558  86.5841 273.5539 14.82150050668142
Epoch (UTC): 01 March 2021 17:02:04
Eccentricity: 0.0001558
inclination: 97.8851°
perigee height: 621 km
apogee height: 623 km
right ascension of ascending node: 246.1307°
argument of perigee: 86.5841°
revolutions per day: 14.82150050
mean anomaly at epoch: 273.5539°
orbit number at epoch: 66814

The dashed part of the orbit path shows where the satellite is in the earth's shadow,  

DLR